GW3503 Weather Reports


time (UTC)temp
F
wind
direction
speed
knots
gust
knots
rain 1hr
in
rain 24hr
in
rain mn
in
humidity
%
barometer
mb
20260906044531 70 5 0.0 0.0 0.00 0.04 0.00 96 1014.8
20260906043024 70 5 0.0 0.0 0.00 0.04 0.00 96 1015.0
20260906041526 71 5 0.0 0.0 0.00 0.04 0.00 96 1015.0
20260906040016 71 5 0.0 0.0 0.00 0.04 0.00 96 1015.3
20260906034516 71 5 0.0 0.0 0.00 0.04 0.04 96 1015.5
20260906033036 71 5 0.0 0.0 0.00 0.04 0.04 96 1015.5
20260906031529 71 5 0.0 0.0 0.00 0.04 0.04 96 1015.3
20260906030028 71 5 0.0 0.0 0.00 0.04 0.04 96 1015.3
20260906024509 71 5 0.0 0.0 0.00 0.04 0.04 96 1015.3
20260906023019 71 5 0.0 0.0 0.00 0.04 0.04 96 1015.2
20260906021524 71 5 0.0 0.0 0.00 0.04 0.04 96 1015.1
20260906020031 71 5 0.0 0.0 0.00 0.04 0.04 96 1014.9
20260906014533 71 5 0.0 0.0 0.00 0.04 0.04 95 1015.0
20260906013014 71 5 0.0 0.0 0.00 0.04 0.04 95 1015.1
20260906011523 71 5 0.0 0.0 0.00 0.04 0.04 95 1015.0
20260906010031 72 5 0.0 0.0 0.00 0.04 0.04 94 1014.9
20260906004527 72 5 0.0 0.0 0.00 0.04 0.04 94 1014.6
20260906003029 72 5 0.0 0.0 0.00 0.04 0.04 94 1014.5
20260906001519 73 5 0.0 0.0 0.00 0.04 0.04 93 1014.2
20260906000025 73 5 0.0 0.0 0.00 0.04 0.04 93 1014.1
20260905234529 74 5 0.0 0.0 0.00 0.04 0.04 92 1014.0
20260905233033 74 48 0.0 0.0 0.00 0.04 0.04 91 1014.1
20260905231529 74 48 0.0 0.0 0.00 0.04 0.04 91 1014.0
20260905230018 75 48 0.0 0.0 0.00 0.04 0.04 92 1014.0
20260905224533 75 32 0.0 0.0 0.00 0.04 0.04 91 1014.0
20260905223027 75 32 0.0 0.0 0.00 0.04 0.04 90 1014.0
20260905221534 76 32 0.0 0.0 0.00 0.04 0.04 89 1014.1
20260905220038 76 32 0.0 0.0 0.00 0.04 0.04 90 1014.0
20260905214526 76 32 0.0 0.0 0.00 0.04 0.04 89 1014.1
20260905213028 76 122 0.0 0.0 0.00 0.04 0.04 92 1014.4
20260905211508 76 122 0.0 0.9 0.00 0.04 0.04 91 1014.5
20260905210013 76 122 0.0 0.0 0.00 0.04 0.04 91 1014.8
20260905204520 76 122 0.0 0.0 0.00 0.04 0.04 91 1014.9
20260905203031 76 122 0.0 0.0 0.00 0.04 0.04 91 1014.8
20260905201507 75 16 0.0 0.0 0.00 0.04 0.04 92 1015.2
20260905200010 75 40 0.0 0.0 0.00 0.04 0.04 92 1015.2
20260905194517 75 67 0.0 1.7 0.00 0.04 0.04 92 1015.6
20260905193026 75 45 0.0 1.7 0.00 0.04 0.04 90 1015.8
20260905191528 75 94 0.0 7.0 0.01 0.04 0.04 87 1015.5
20260905190009 76 213 0.0 4.3 0.03 0.04 0.04 90 1016.2
20260905184515 75 210 0.9 3.5 0.04 0.04 0.04 94 1016.4
20260905183018 76 184 0.0 1.7 0.04 0.04 0.04 90 1015.8
20260905181528 78 232 0.9 7.8 0.03 0.03 0.03 85 1016.0
20260905180007 84 242 0.9 4.3 0.01 0.01 0.01 83 1015.7
20260905174512 86 42 0.9 2.6 0.00 0.00 0.00 79 1015.2
20260905173026 87 187 0.9 2.6 0.00 0.00 0.00 75 1015.5
20260905171535 89 153 0.9 2.6 0.00 0.00 0.00 71 1015.6
20260905170030 88 155 0.9 5.2 0.00 0.00 0.00 67 1015.6
20260905164510 88 191 2.6 6.1 0.00 0.00 0.00 66 1015.9
20260905163016 87 163 0.9 4.3 0.00 0.00 0.00 76 1016.2
20260905161525 86 163 1.7 4.3 0.00 0.00 0.00 79 1016.4
20260905160046 86 166 0.9 3.5 0.00 0.00 0.00 80 1016.4
20260905154531 86 159 0.0 1.7 0.00 0.00 0.00 80 1016.4
20260905153019 86 159 0.0 1.7 0.00 0.00 0.00 82 1016.5
20260905151520 85 161 0.0 1.7 0.00 0.00 0.00 83 1016.5
20260905150025 84 156 0.0 1.7 0.00 0.00 0.00 81 1016.5
20260905144529 83 26 0.0 2.6 0.00 0.00 0.00 86 1016.6
20260905143032 81 178 0.0 1.7 0.00 0.00 0.00 87 1016.6
20260905141515 80 98 0.0 1.7 0.00 0.00 0.00 88 1016.8
20260905140024 78 154 0.0 1.7 0.00 0.00 0.00 92 1016.8
20260905134530 75 133 0.0 1.7 0.00 0.00 0.00 94 1016.9
20260905133031 74 76 0.0 1.7 0.00 0.00 0.00 95 1016.9
20260905131529 73 32 0.0 1.7 0.00 0.00 0.00 96 1017.1
20260905130018 72 352 0.0 0.0 0.00 0.00 0.00 98 1017.1
20260905124536 71 352 0.0 0.0 0.00 0.00 0.00 98 1017.0
20260905123027 70 352 0.0 0.0 0.00 0.00 0.00 98 1016.9
20260905121512 70 352 0.0 0.0 0.00 0.00 0.00 97 1016.9
20260905120014 70 352 0.0 0.0 0.00 0.00 0.00 97 1016.9
20260905114526 70 352 0.0 0.0 0.00 0.00 0.00 97 1016.7
20260905113004 70 352 0.0 0.0 0.00 0.00 0.00 97 1016.6
20260905111508 70 352 0.0 0.0 0.00 0.00 0.00 97 1016.2
20260905110015 70 352 0.0 0.0 0.00 0.00 0.00 97 1016.0
20260905104519 70 352 0.0 0.0 0.00 0.00 0.00 97 1016.0
20260905103027 70 352 0.0 0.0 0.00 0.00 0.00 97 1015.9
20260905101507 70 352 0.0 0.0 0.00 0.00 0.00 97 1015.8
20260905100010 70 352 0.0 0.0 0.00 0.00 0.00 97 1015.8
20260905094518 70 352 0.0 0.0 0.00 0.00 0.00 96 1015.8
20260905093025 70 352 0.0 0.0 0.00 0.00 0.00 96 1015.7
20260905091559 70 352 0.0 0.0 0.00 0.00 0.00 96 1015.6
20260905090010 70 352 0.0 0.0 0.00 0.00 0.00 96 1015.6
20260905084513 70 352 0.0 0.0 0.00 0.00 0.00 96 1015.7
20260905083018 70 352 0.0 0.0 0.00 0.00 0.00 96 1015.9
20260905081524 71 352 0.0 0.0 0.00 0.00 0.00 96 1016.1
20260905080037 71 352 0.0 0.0 0.00 0.00 0.00 96 1016.2
20260905074514 71 352 0.0 0.0 0.00 0.00 0.00 95 1016.2
20260905073016 71 352 0.0 0.0 0.00 0.00 0.00 95 1016.4
20260905071526 71 352 0.0 0.0 0.00 0.00 0.00 95 1016.7
20260905070029 71 352 0.0 0.0 0.00 0.00 0.00 95 1016.7
20260905064532 71 352 0.0 0.0 0.00 0.00 0.00 95 1016.8
20260905063015 72 352 0.0 0.0 0.00 0.00 0.00 95 1017.0
20260905061520 71 352 0.0 0.0 0.00 0.00 0.00 95 1017.0
20260905060029 72 352 0.0 0.0 0.00 0.00 0.00 95 1017.2
20260905054531 72 352 0.0 0.0 0.00 0.00 0.00 95 1017.4
20260905053012 72 352 0.0 0.0 0.00 0.00 0.00 95 1017.5
20260905051517 72 352 0.0 0.0 0.00 0.00 0.00 95 1017.5
20260905050002 72 352 0.0 0.0 0.00 0.00 0.00 95 1017.5